Regional Weather Roundup
Issued by NWS

Home | Current Version | Previous Version | Text Only | Print | Product List | Glossary Off
Versions: 1 2 3 4 5 6 7 8 9 10 11 12 13 14 15 16 17 18 19 20 21 22 23 24 25 26 27 28 29 30 31 32 33 34 35 36 37 38 39 40 41 42 43 44 45 46 47 48 49 50

281
ASUS45 KBOI 260010
RWRID

IDAHO REGIONAL WEATHER ROUNDUP
NATIONAL WEATHER SERVICE BOISE ID
600 PM MDT THU MAY 25 2017

NOTE: "FAIR" INDICATES FEW OR NO CLOUDS BELOW 12000 FEET
WITH NO SIGNIFICANT WEATHER AND/OR OBSTRUCTIONS TO VISIBILITY

IDZ012-014-260100-
SOUTHWEST IDAHO


CITY           SKY/WX    TMP DP  RH WIND       PRES   REMARKS
BOISE          PTSUNNY   66  32  28 W9        29.72S
CALDWELL       PTSUNNY   65  34  31 W14       29.72F
MOUNTAIN HOME  MOSUNNY   65  30  27 NW12      29.72S
$$

IDZ016-017-260100-
SOUTHCENTRAL IDAHO


CITY           SKY/WX    TMP DP  RH WIND       PRES   REMARKS
BURLEY         MOSUNNY   63  29  27 NW7       29.73F
JEROME         MOSUNNY   63  26  24 W7G16     29.74F
TWIN FALLS     CLOUDY    61  29  29 NW8       29.74S
$$

IDZ019>023-260100-
SOUTHEAST IDAHO


CITY           SKY/WX    TMP DP  RH WIND       PRES   REMARKS
IDAHO FALLS    MOSUNNY   64  24  21 VRB5      29.76F
POCATELLO      MOSUNNY   60  29  30 NW3       29.77S
REXBURG        MOSUNNY   61  21  21 VRB5      29.76S
$$

IDZ006-010-011-018-031-032-260100-
CENTRAL IDAHO MOUNTAINS


CITY           SKY/WX    TMP DP  RH WIND       PRES   REMARKS
MCCALL         CLOUDY    49  34  56 N15G23    29.77R
HAILEY         PTSUNNY   55  28  35 SE9       29.78R
STANLEY          N/A     51  24  34 CALM      29.78R
SALMON         CLOUDY    59  34  38 N10       29.73S
CHALLIS        CLOUDY    57  28  33 NE7G18    29.73F
$$

IDZ002-004-006-007-026-260100-
NORTHERN IDAHO


CITY           SKY/WX    TMP DP  RH WIND       PRES   REMARKS
LEWISTON       CLOUDY    62  40  44 VRB3      29.82F
LOWELL           N/A     62  39  42 VRB6      29.80S
COEUR D`ALENE  PTSUNNY   64  41  42 SW10      29.82F
MULLAN PASS    CLOUDY    45  34  65 VRB3      29.86S
$$




USA.gov is the U.S. government's official web portal to all federal, state and local government web resources and services.